Theta_e
310 311 310 310 309 310 311 311 311 310 309 311 310 311 310 309 310 310 309 309 310 311 311 312 312 315 318 320 321 321 320 320 320 320 319 318 317 316 316 315 314 313 312 311
309 311 310 310 309 311 310 311 311 309 309 311 310 311 310 310 309 308 308 308 308 311 313 314 313 313 315 319 320 321 321 320 320 320 320 319 318 318 317 317 316 315 313 312
310 310 309 310 310 311 309 310 309 311 309 309 311 312 311 310 310 309 308 307 307 306 308 312 314 314 314 314 315 318 320 320 320 320 320 320 319 319 318 317 317 316 316 314
310 309 311 310 311 310 312 309 311 312 311 314 309 314 311 311 311 308 306 305 305 306 307 311 313 314 314 314 316 317 318 319 320 320 320 320 320 319 319 318 318 318 317 316
310 311 311 312 312 310 312 310 310 310 309 310 310 313 310 308 313 309 306 304 303 303 305 307 309 313 314 314 315 316 317 318 319 319 319 319 319 319 319 319 318 318 318 317
309 310 310 311 309 310 309 310 309 308 309 312 309 310 311 310 311 308 304 303 301 302 303 305 307 309 311 314 315 315 316 317 317 317 318 318 318 318 319 319 318 318 318 318
308 310 310 310 310 309 309 309 313 315 316 315 309 311 310 310 309 307 304 302 300 300 301 301 303 305 307 309 310 311 313 314 315 316 317 317 318 318 318 318 318 318 318 318
310 311 310 308 310 310 310 309 312 313 314 313 309 313 312 309 306 304 302 301 301 300 300 300 300 301 302 305 307 309 309 308 309 310 311 313 315 316 317 317 317 317 317 317
310 311 307 308 308 309 309 311 308 309 307 311 311 310 310 307 306 303 302 301 300 300 300 300 300 300 300 301 301 303 306 307 308 307 307 308 310 311 312 312 314 316 317 318
310 312 308 308 308 308 309 307 311 310 315 311 310 312 314 309 306 304 302 301 300 300 300 300 300 300 300 300 300 300 301 302 302 303 305 305 305 305 306 309 310 311 312 313
308 308 310 308 308 308 309 308 307 308 309 315 314 312 307 308 306 304 302 301 300 300 299 299 299 300 300 300 300 300 300 300 300 300 301 301 302 303 303 303 304 306 309 311
307 308 312 311 307 306 307 309 307 311 311 308 309 311 302 303 303 302 301 300 300 299 299 299 299 299 299 299 299 299 300 300 300 300 300 300 300 300 301 301 301 301 302 304
307 307 309 306 308 308 307 306 307 306 306 310 313 311 300 301 301 301 301 300 299 299 299 299 299 299 299 299 299 299 299 299 300 299 299 299 299 300 300 300 300 300 300 301
306 307 308 307 307 305 307 305 305 306 309 311 310 307 302 300 300 299 300 299 299 299 299 299 299 299 298 298 298 298 298 298 299 299 299 299 299 299 299 299 299 299 299 299
299 305 302 304 303 302 303 303 303 305 305 308 307 306 301 299 298 298 298 299 299 299 299 299 299 298 298 297 297 297 297 297 297 298 298 298 298 298 299 299 299 299 299 299
296 299 298 299 299 299 301 300 300 299 299 301 300 299 298 297 299 298 298 299 299 299 299 299 298 297 297 296 296 296 296 296 296 297 297 297 298 298 298 298 299 299 299 298
297 298 297 296 297 298 298 298 298 298 297 298 301 298 297 297 298 298 298 298 298 298 298 298 297 296 296 295 295 295 295 296 296 296 296 296 297 297 298 298 298 298 298 298
296 297 298 299 297 299 298 298 298 299 298 297 297 298 298 298 299 298 298 298 298 298 298 297 296 295 295 295 294 295 295 295 295 295 295 295 295 296 296 296 297 297 297 297
296 296 299 299 299 298 298 298 298 298 299 298 298 298 300 299 299 298 298 298 298 298 297 295 294 294 294 293 293 293 292 292 292 292 292 293 293 293 293 293 294 294 294 294
296 295 298 298 301 302 299 298 297 297 300 298 298 298 298 298 298 298 298 298 298 297 295 294 294 292 292 291 291 291 291 291 291 291 291 291 291 292 292 292 292 293 293 293
297 298 298 300 302 301 298 298 298 301 300 297 297 298 298 297 297 297 298 297 295 294 293 292 291 290 290 290 290 289 289 289 289 289 289 289 289 289 290 291 291 292 292 292
297 297 298 299 301 301 300 298 298 298 297 296 296 297 297 297 298 297 296 294 293 292 292 290 289 289 289 288 288 288 288 288 288 288 288 288 288 288 289 289 290 290 291 291
293 295 295 297 298 297 296 297 297 297 296 296 296 297 297 298 298 297 295 293 292 291 290 289 288 289 288 287 287 288 287 287 286 286 287 287 288 288 288 288 289 289 290 290
293 293 294 294 294 295 296 296 296 297 297 297 297 297 297 297 296 294 293 292 291 290 289 289 288 288 287 287 287 287 287 285 285 286 286 287 286 286 286 287 288 288 288 289
293 293 292 292 293 295 296 296 296 296 297 297 297 297 296 295 294 293 292 291 290 289 289 288 287 287 287 287 286 286 286 285 286 286 285 286 286 286 285 285 286 287 287 287
294 292 293 293 295 295 295 296 296 296 296 296 296 296 296 295 293 292 291 290 289 289 288 288 287 287 287 287 286 286 286 286 285 285 285 285 285 285 284 285 285 285 285 285
Wind_Speed
4 4 1 2 3 3 4 3 1 2 1 5 5 8 11 15 25 25 24 25 26 27 22 14 7 9 19 21 20 20 18 15 16 16 15 14 12 10 11 10 10 11 10 11
5 1 2 2 3 2 2 1 2 2 3 4 4 8 9 16 14 17 20 25 27 29 28 24 16 4 11 19 20 19 19 17 16 16 15 14 11 10 9 8 9 10 11 12
4 2 1 2 2 1 1 2 2 1 2 4 4 3 4 6 16 21 25 24 28 30 32 32 26 18 5 8 14 16 15 16 16 17 16 17 15 13 11 6 5 6 9 11
2 1 2 3 2 4 2 2 2 2 2 2 1 1 1 4 13 19 22 25 28 33 34 37 34 28 19 9 3 7 11 13 13 14 15 17 17 17 15 14 12 11 11 10
1 1 2 1 1 3 3 2 2 1 2 1 1 2 1 2 9 11 17 21 27 31 35 37 40 36 27 18 12 7 5 6 7 9 10 13 15 16 17 16 16 15 14 12
2 2 1 1 2 2 5 4 5 3 2 0 2 2 0 2 1 4 11 19 25 31 34 36 37 38 38 30 23 16 11 6 3 3 6 8 10 12 14 15 16 16 17 14
6 2 3 1 2 2 3 3 2 0 1 2 1 3 2 3 5 6 9 15 24 29 33 35 37 37 37 36 34 30 25 21 14 6 2 4 7 10 13 15 16 16 16 16
3 2 4 6 2 2 2 3 3 3 2 1 1 3 2 5 8 11 16 20 24 29 30 32 34 33 33 32 30 28 27 26 24 21 18 13 7 5 9 13 15 17 18 18
3 2 4 3 2 2 0 1 1 4 1 0 3 3 1 5 7 10 12 19 23 26 28 29 30 31 30 29 28 26 24 23 21 20 18 16 15 13 11 9 9 11 14 17
1 3 2 4 1 5 1 3 1 2 2 3 2 4 4 9 8 6 8 12 18 21 24 25 26 27 26 25 24 23 22 22 20 18 17 16 16 15 13 12 11 10 10 11
2 1 5 1 5 2 4 2 4 2 1 2 1 2 2 4 9 8 7 10 14 17 20 21 21 22 22 22 22 21 20 19 18 18 16 14 13 12 12 12 13 13 12 11
3 2 3 1 4 2 3 3 3 2 1 1 1 1 2 2 10 12 10 10 12 15 16 18 20 20 20 20 20 20 19 18 18 17 16 15 14 13 12 12 13 13 12 12
3 1 2 3 3 2 5 3 2 2 1 4 2 2 2 6 8 8 10 8 11 14 16 17 18 20 21 20 19 19 19 19 18 18 17 17 16 16 16 16 15 14 13 12
1 1 3 4 1 1 3 3 2 1 2 2 4 6 6 6 7 7 8 8 11 14 16 17 19 21 21 21 21 20 20 20 20 20 19 19 19 19 18 18 18 17 16 16
4 1 2 3 4 3 4 4 2 4 4 5 3 2 6 5 5 6 8 10 12 15 16 17 18 20 22 22 23 23 24 24 23 22 22 21 20 19 19 19 18 17 18 17
7 1 3 4 4 4 4 2 2 1 2 2 4 3 2 5 8 6 6 9 12 13 14 15 17 20 23 25 27 28 28 27 27 27 26 24 24 22 21 20 19 19 19 19
3 2 2 3 5 7 2 1 3 1 1 2 2 1 2 2 3 1 3 6 9 11 14 18 21 25 27 29 30 31 31 30 29 29 29 30 29 29 28 26 24 23 23 22
1 1 1 2 5 2 0 1 3 5 3 3 3 3 4 2 4 6 1 6 9 12 17 21 26 30 30 30 29 29 29 29 29 29 30 30 31 31 31 32 32 31 31 30
5 1 1 1 2 4 1 2 1 1 2 6 3 1 9 8 9 6 4 7 13 17 21 25 27 28 28 28 27 27 27 26 25 26 28 29 30 31 31 31 31 30 31 31
4 4 2 1 1 3 2 1 6 4 2 7 5 7 11 5 3 7 9 13 17 21 24 26 26 25 24 24 23 24 24 24 25 26 27 27 27 27 28 27 26 26 25 26
1 1 3 3 3 5 2 4 5 4 2 9 10 16 17 8 10 6 13 16 19 21 22 22 21 20 19 19 19 20 22 21 24 26 27 26 24 23 21 22 23 23 23 23
2 2 3 2 3 5 3 4 1 10 9 21 23 21 16 11 9 11 15 18 20 21 20 18 17 17 15 18 20 20 20 22 23 22 20 19 18 18 17 18 19 20 20 20
3 5 3 6 3 5 19 16 17 12 25 25 14 10 11 11 12 17 19 19 18 17 16 14 14 13 12 16 16 19 20 21 20 17 17 18 19 19 17 16 16 16 17 19
4 4 3 2 5 18 18 24 20 8 10 10 11 12 13 13 14 16 16 16 14 13 12 13 10 9 13 14 15 17 19 18 17 16 16 17 17 17 17 14 13 15 19 21
5 4 3 5 15 18 14 6 16 15 13 12 13 14 14 13 14 14 14 13 11 10 9 10 9 10 13 13 15 16 16 15 14 16 17 17 18 20 18 17 18 20 19 19
9 6 4 6 17 12 19 22 16 19 18 15 18 17 15 15 14 13 12 11 10 9 9 9 10 10 12 13 13 14 14 14 12 15 15 17 17 17 16 16 17 17 17 17
Wind_Direction
20 63 121 230 171 136 130 121 217 267 289 85 75 68 34 23 36 26 23 24 29 30 27 23 341 240 227 231 235 233 233 232 227 227 228 234 244 249 254 259 261 261 263 260
23 76 189 101 119 123 102 96 282 287 353 105 126 90 66 41 36 32 25 26 24 29 33 36 34 25 224 225 230 234 235 234 233 233 235 241 250 261 264 262 264 263 261 262
145 186 322 192 133 105 214 174 221 162 38 43 124 84 56 49 44 37 40 39 40 35 32 35 37 39 31 237 231 225 227 237 241 240 240 244 249 263 271 291 323 321 287 274
214 281 138 127 166 136 339 195 123 126 83 204 11 214 86 69 44 34 28 34 37 41 45 46 44 42 44 59 158 204 210 217 234 245 248 253 259 265 274 282 284 286 284 287
320 45 57 52 226 168 179 89 83 70 108 108 256 142 166 338 38 22 24 36 45 49 51 50 53 51 49 57 72 99 141 188 213 236 249 257 262 267 274 281 290 294 294 294
262 298 206 197 65 72 142 80 55 72 94 228 285 166 279 6 54 45 34 42 50 55 57 59 60 61 59 61 65 69 75 93 129 208 237 248 257 263 265 269 277 281 283 282
342 355 336 52 89 29 79 64 332 5 60 216 311 101 50 57 68 82 62 51 57 58 57 57 57 58 59 62 64 66 68 66 61 53 1 282 267 265 266 267 266 264 266 273
28 356 7 338 76 185 50 154 161 254 210 259 346 187 143 118 104 89 80 73 64 59 59 58 57 57 58 60 62 64 66 66 62 59 54 44 18 316 285 277 273 270 268 263
21 287 320 53 356 59 108 3 197 103 50 145 131 81 88 121 100 91 78 71 62 57 56 56 54 52 54 55 56 57 60 60 58 54 50 45 39 32 21 352 315 293 282 274
206 324 317 290 87 43 118 151 23 22 242 256 221 199 176 172 153 122 90 76 67 63 58 54 49 48 48 49 50 52 51 49 48 45 42 38 37 32 25 13 3 352 334 306
350 87 288 332 26 34 355 27 41 114 138 237 262 196 1 194 166 147 124 91 70 60 56 52 46 43 42 41 39 39 40 39 37 34 30 27 23 21 16 14 13 9 356 343
341 133 280 273 298 21 93 102 89 127 259 61 322 220 355 101 144 142 131 100 72 57 46 41 38 38 35 32 29 27 25 25 23 19 14 11 8 6 4 5 2 358 356 351
336 341 1 357 1 25 58 36 76 98 88 225 206 186 83 129 121 129 125 97 58 41 36 33 29 27 25 22 21 18 14 10 5 3 1 358 354 353 354 354 352 347 344 341
162 112 210 221 331 37 303 348 65 146 210 247 231 163 180 145 132 120 108 76 44 35 28 21 16 12 9 6 3 1 1 357 351 349 348 347 345 344 344 344 342 341 341 336
59 246 332 275 274 254 243 265 189 211 241 240 354 163 158 159 142 106 81 48 33 26 19 12 4 358 353 350 348 345 343 343 342 340 338 338 335 333 331 330 333 334 334 334
357 332 1 291 7 355 283 296 271 20 332 272 123 100 122 118 160 124 68 35 23 13 5 359 353 348 343 337 332 329 327 326 326 326 325 324 322 321 322 322 324 323 323 324
13 50 31 275 339 321 279 54 105 103 2 272 206 146 74 74 93 178 215 17 14 4 354 345 339 335 331 328 325 320 319 318 316 315 312 312 312 312 313 314 313 313 314 315
149 112 60 298 337 240 173 3 146 118 71 72 75 72 72 54 342 349 130 335 343 339 335 332 328 325 323 322 320 318 317 315 312 310 307 309 310 308 308 308 309 309 308 307
172 121 76 16 279 298 226 201 96 100 105 27 5 351 340 330 319 306 271 330 330 324 321 321 319 319 318 318 317 315 316 319 317 314 313 311 310 310 310 310 311 312 313 313
92 77 106 146 246 261 190 239 330 156 160 336 286 277 264 232 239 259 286 303 309 313 313 313 315 318 318 319 320 321 321 320 318 318 319 319 318 315 314 315 315 316 315 316
73 34 188 233 250 283 221 25 115 188 157 304 290 261 246 212 235 261 289 299 306 310 315 319 321 325 329 332 333 333 330 327 321 318 315 315 316 317 320 315 315 318 319 323
185 196 218 166 216 268 152 66 9 270 274 303 292 279 264 253 267 286 300 309 313 316 318 322 327 331 336 337 333 335 333 329 327 328 331 334 344 346 344 340 335 333 334 336
259 198 197 188 230 259 288 272 282 277 294 293 282 270 244 253 279 295 303 307 312 316 323 327 332 344 330 337 344 343 344 343 346 356 359 356 354 356 351 354 356 359 359 355
262 188 220 32 254 261 288 293 310 327 305 292 291 267 253 269 283 294 301 306 312 320 324 330 342 337 346 344 348 350 349 356 4 13 9 6 358 4 10 10 9 7 10 13
228 177 202 255 278 284 282 275 320 308 294 270 281 269 270 285 296 300 302 305 308 315 324 332 331 335 344 347 348 351 357 8 22 25 20 21 32 26 21 28 31 28 28 23
191 198 182 225 259 260 280 304 296 299 283 278 278 267 276 288 294 295 296 297 301 308 320 321 325 329 342 343 340 349 359 3 13 29 17 21 27 23 22 27 42 39 32 29